This is the latest recevied weather packets stored in our database for station/object KE4LOJ. If no packets are shown the sender has not sent any weather packets the latest 10 day(s).
| Time | Temp. | Humidity | Pressure | Rain* | Wind** | Luminosity | Snow |
|---|---|---|---|---|---|---|---|
| 1778024869 | 24.44° C | 55% | 1016.1 hPa | 0 mm | - | 10 W/m² | - |
| 1778024567 | 24.44° C | 54% | 1016 hPa | 0 mm | - | 13 W/m² | - |
| 1778024263 | 24.44° C | 53% | 1015.9 hPa | 0 mm | - | 18 W/m² | - |
| 1778023962 | 24.44° C | 54% | 1015.9 hPa | 0 mm | - | 23 W/m² | - |
| 1778023658 | 24.44° C | 53% | 1015.7 hPa | 0 mm | - | 27 W/m² | - |
| 1778023356 | 25° C | 55% | 1015.7 hPa | 0 mm | - | 31 W/m² | - |
| 1778023052 | 25° C | 55% | 1015.7 hPa | 0 mm | - | 34 W/m² | - |
| 1778022751 | 25° C | 55% | 1015.7 hPa | 0 mm | - | 40 W/m² | - |
| 1778022449 | 25° C | 55% | 1015.7 hPa | 0 mm | - | 44 W/m² | - |
| 1778022145 | 25.56° C | 54% | 1015.7 hPa | 0 mm | - | 49 W/m² | - |
| 1778021842 | 25.56° C | 54% | 1015.7 hPa | 0 mm | - | 53 W/m² | - |
| 1778021539 | 25.56° C | 53% | 1015.7 hPa | 0 mm | - | 59 W/m² | - |
| 1778021234 | 25.56° C | 53% | 1015.7 hPa | 0 mm | - | 78 W/m² | - |
| 1778020932 | 25.56° C | 53% | 1015.7 hPa | 0 mm | - | 79 W/m² | - |
| 1778020630 | 25.56° C | 52% | 1015.8 hPa | 0 mm | - | 92 W/m² | - |
| 1778020326 | 26.11° C | 52% | 1016 hPa | 0 mm | - | 83 W/m² | - |
| 1778020022 | 26.11° C | 52% | 1015.9 hPa | 0 mm | - | 139 W/m² | - |
| 1778019718 | 26.11° C | 51% | 1015.8 hPa | 0 mm | - | 175 W/m² | - |
| 1778019415 | 26.67° C | 51% | 1015.9 hPa | 0 mm | - | 204 W/m² | - |
| 1778019112 | 26.67° C | 52% | 1015.9 hPa | 0 mm | - | 228 W/m² | - |
| 1778018809 | 26.67° C | 52% | 1015.9 hPa | 0 mm | - | 225 W/m² | - |
| 1778018507 | 26.11° C | 52% | 1015.9 hPa | 0 mm | - | 262 W/m² | - |
| 1778018204 | 26.11° C | 52% | 1015.8 hPa | 0 mm | - | 267 W/m² | - |
| 1778017902 | 26.11° C | 52% | 1015.9 hPa | 0 mm | - | 277 W/m² | - |
| 1778017600 | 26.11° C | 52% | 1016 hPa | 0 mm | - | 100 W/m² | - |
* Rain latest hour (hover to see other rain measurements)
** Current wind speed in m/s (hover to see current wind gust speed)